• In Uzbekistan
  • List of Countries
  • For 7 days
  • Water Temperature
  • Satellite Maps
  • Weather Map
  • Weather Widgets
  • user-avatar
    Login

    Hourly Weather Haiger

    Today, 13 December, Wednesday

    Time Temperature Precipitation Wind Pressure Humidity
    00:00 -3°C° 0 mm 2 mps 726 mmHg 92%
    01:00 -3°C° 0 mm 2 mps 726 mmHg 93%
    02:00 -4°C° 0 mm 3 mps 726 mmHg 93%
    03:00 -2°C° 0 mm 3 mps 725 mmHg 92%
    04:00 -2°C° 0 mm 3 mps 725 mmHg 92%
    05:00 -2°C° 0 mm 4 mps 725 mmHg 90%
    06:00 -2°C° 0 mm 4 mps 724 mmHg 88%
    07:00 -1°C° 0 mm 5 mps 724 mmHg 85%
    08:00 -1°C° 0 mm 5 mps 723 mmHg 84%
    09:00 -2°C° 0 mm 6 mps 723 mmHg 83%
    10:00 -1°C° 0 mm 6 mps 722 mmHg 82%
    11:00 -1°C° 0.6 mm 6 mps 721 mmHg 81%
    12:00 -1°C° 0.6 mm 7 mps 720 mmHg 81%
    13:00 0°C° 0.6 mm 7 mps 719 mmHg 81%
    14:00 0°C° 1.4 mm 7 mps 718 mmHg 82%
    15:00 0°C° 1.4 mm 7 mps 717 mmHg 83%
    16:00 0°C° 1.4 mm 7 mps 716 mmHg 84%
    17:00 +1°C° 0.6 mm 6 mps 716 mmHg 86%
    18:00 +1°C° 0.6 mm 6 mps 715 mmHg 88%
    19:00 +1°C° 0.6 mm 5 mps 714 mmHg 90%
    20:00 +2°C° 0.3 mm 6 mps 712 mmHg 89%
    21:00 +2°C° 0.3 mm 6 mps 711 mmHg 89%
    22:00 +3°C° 0.3 mm 7 mps 710 mmHg 88%
    23:00 +2°C° 1.9 mm 6 mps 710 mmHg 86%

    Tomorrow, 14 December, Thursday

    Time Temperature Precipitation Wind Pressure Humidity
    00:00 +2°C° 1.9 mm 5 mps 710 mmHg 84%
    01:00 +1°C° 1.9 mm 5 mps 710 mmHg 82%
    02:00 +1°C° 0.3 mm 5 mps 710 mmHg 83%
    03:00 0°C° 0.3 mm 5 mps 710 mmHg 83%
    04:00 0°C° 0.3 mm 5 mps 710 mmHg 84%
    05:00 -2°C° 0.5 mm 6 mps 711 mmHg 81%
    06:00 -2°C° 0.5 mm 8 mps 711 mmHg 77%
    07:00 -3°C° 0.5 mm 9 mps 712 mmHg 74%
    08:00 -2°C° 0.1 mm 8 mps 713 mmHg 74%
    09:00 -2°C° 0.1 mm 7 mps 714 mmHg 75%
    10:00 -2°C° 0.1 mm 6 mps 715 mmHg 75%
    11:00 -2°C° 0.2 mm 6 mps 715 mmHg 76%
    12:00 -1°C° 0.2 mm 6 mps 715 mmHg 76%
    13:00 -1°C° 0.2 mm 6 mps 715 mmHg 77%
    14:00 -1°C° 0.8 mm 6 mps 714 mmHg 80%
    15:00 0°C° 0.8 mm 5 mps 713 mmHg 84%
    16:00 0°C° 0.8 mm 4 mps 713 mmHg 87%
    17:00 0°C° 0.2 mm 4 mps 712 mmHg 88%
    18:00 0°C° 0.2 mm 3 mps 711 mmHg 90%
    19:00 0°C° 0.2 mm 3 mps 711 mmHg 91%
    20:00 0°C° 0.4 mm 3 mps 710 mmHg 92%
    21:00 +1°C° 0.4 mm 2 mps 710 mmHg 93%
    22:00 +1°C° 0.4 mm 2 mps 710 mmHg 94%
    23:00 +1°C° 0.1 mm 2 mps 710 mmHg 93%

    Day after tomorrow, 15 December, Friday

    Time Temperature Precipitation Wind Pressure Humidity
    00:00 0°C° 0.1 mm 3 mps 710 mmHg 93%
    01:00 0°C° 0.1 mm 3 mps 711 mmHg 92%
    02:00 -1°C° 0.1 mm 3 mps 711 mmHg 91%
    03:00 -1°C° 0.1 mm 3 mps 711 mmHg 91%
    04:00 -2°C° 0.1 mm 3 mps 712 mmHg 91%
    05:00 -2°C° 0 mm 3 mps 712 mmHg 91%
    06:00 -4°C° 0 mm 3 mps 712 mmHg 91%
    07:00 -3°C° 0 mm 2 mps 713 mmHg 92%
    08:00 -2°C° 0.2 mm 3 mps 713 mmHg 92%
    09:00 -2°C° 0.2 mm 3 mps 713 mmHg 91%
    10:00 -1°C° 0.2 mm 3 mps 714 mmHg 91%
    11:00 0°C° 0.4 mm 3 mps 714 mmHg 91%
    12:00 -1°C° 0.4 mm 4 mps 714 mmHg 91%
    13:00 0°C° 0.4 mm 4 mps 714 mmHg 91%
    14:00 +1°C° 0.3 mm 3 mps 714 mmHg 92%
    15:00 +1°C° 0.3 mm 3 mps 714 mmHg 92%
    16:00 0°C° 0.3 mm 3 mps 714 mmHg 92%
    17:00 +1°C° 0.2 mm 2 mps 714 mmHg 93%
    18:00 +1°C° 0.2 mm 2 mps 714 mmHg 94%
    19:00 +1°C° 0.2 mm 2 mps 714 mmHg 95%
    20:00 -1°C° 0.1 mm 2 mps 715 mmHg 95%
    21:00 -1°C° 0.1 mm 2 mps 715 mmHg 96%
    22:00 0°C° 0.1 mm 1 mps 715 mmHg 96%
    23:00 -2°C° 0 mm 2 mps 716 mmHg 95%

    16 December, Saturday

    Time Temperature Precipitation Wind Pressure Humidity
    00:00 -1°C° 0 mm 2 mps 716 mmHg 95%
    01:00 -1°C° 0 mm 2 mps 716 mmHg 95%
    02:00 -1°C° 0 mm 2 mps 717 mmHg 94%
    03:00 -1°C° 0 mm 3 mps 717 mmHg 94%
    04:00 -1°C° 0 mm 3 mps 717 mmHg 93%
    05:00 -1°C° 0 mm 3 mps 718 mmHg 93%
    06:00 -1°C° 0 mm 3 mps 718 mmHg 92%
    07:00 -1°C° 0 mm 3 mps 719 mmHg 92%
    08:00 -2°C° 0 mm 4 mps 719 mmHg 91%
    09:00 -2°C° 0 mm 4 mps 720 mmHg 90%
    10:00 -2°C° 0 mm 4 mps 721 mmHg 89%
    11:00 -1°C° 0 mm 4 mps 721 mmHg 88%
    12:00 -1°C° 0 mm 4 mps 721 mmHg 88%
    13:00 0°C° 0 mm 4 mps 722 mmHg 87%
    14:00 -1°C° 0.1 mm 4 mps 722 mmHg 87%
    15:00 -1°C° 0.1 mm 4 mps 723 mmHg 88%
    16:00 0°C° 0.1 mm 3 mps 723 mmHg 88%
    17:00 -1°C° 0 mm 3 mps 724 mmHg 89%
    18:00 -1°C° 0 mm 3 mps 724 mmHg 90%
    19:00 -2°C° 0 mm 3 mps 725 mmHg 91%
    20:00 -2°C° 0 mm 3 mps 726 mmHg 91%
    21:00 -2°C° 0 mm 3 mps 726 mmHg 92%
    22:00 -2°C° 0 mm 3 mps 727 mmHg 93%
    23:00 -2°C° 0 mm 3 mps 727 mmHg 93%

    17 December, Sunday

    Time Temperature Precipitation Wind Pressure Humidity
    00:00 -3°C° 0 mm 2 mps 728 mmHg 94%
    01:00 -3°C° 0 mm 2 mps 728 mmHg 94%
    02:00 -3°C° 0 mm 2 mps 729 mmHg 94%
    03:00 -3°C° 0 mm 2 mps 729 mmHg 94%
    04:00 -3°C° 0 mm 2 mps 730 mmHg 95%
    05:00 -3°C° 0 mm 2 mps 730 mmHg 95%
    06:00 -3°C° 0 mm 2 mps 731 mmHg 95%
    07:00 -3°C° 0 mm 2 mps 731 mmHg 95%
    08:00 -2°C° 0 mm 2 mps 732 mmHg 94%
    09:00 -2°C° 0 mm 2 mps 732 mmHg 93%
    10:00 -2°C° 0 mm 2 mps 733 mmHg 93%
    11:00 -1°C° 0 mm 2 mps 733 mmHg 92%
    12:00 -1°C° 0 mm 2 mps 734 mmHg 91%
    13:00 0°C° 0 mm 3 mps 734 mmHg 90%
    14:00 +1°C° 0 mm 2 mps 734 mmHg 91%
    15:00 +1°C° 0 mm 2 mps 734 mmHg 92%
    16:00 -1°C° 0 mm 2 mps 735 mmHg 92%
    17:00 -1°C° 0 mm 2 mps 735 mmHg 93%
    18:00 -1°C° 0 mm 2 mps 735 mmHg 93%
    19:00 -1°C° 0 mm 2 mps 736 mmHg 94%
    20:00 -1°C° 0 mm 2 mps 736 mmHg 93%
    21:00 -1°C° 0 mm 2 mps 736 mmHg 93%
    22:00 -2°C° 0 mm 2 mps 736 mmHg 93%
    23:00 -2°C° 0 mm 2 mps 736 mmHg 93%

    18 December, Monday

    Time Temperature Precipitation Wind Pressure Humidity
    00:00 -2°C° 0 mm 2 mps 735 mmHg 93%
    01:00 -3°C° 0 mm 2 mps 735 mmHg 94%
    02:00 -2°C° 0 mm 3 mps 735 mmHg 93%
    03:00 -2°C° 0 mm 3 mps 734 mmHg 93%
    04:00 -1°C° 0 mm 3 mps 734 mmHg 92%
    05:00 -1°C° 0.4 mm 3 mps 733 mmHg 93%
    06:00 0°C° 0.4 mm 3 mps 732 mmHg 93%
    07:00 -1°C° 0.4 mm 4 mps 731 mmHg 94%
    08:00 -1°C° 1 mm 4 mps 731 mmHg 94%
    09:00 -1°C° 1 mm 4 mps 730 mmHg 94%
    10:00 0°C° 1 mm 5 mps 730 mmHg 94%
    11:00 0°C° 0.9 mm 4 mps 729 mmHg 95%
    12:00 0°C° 0.9 mm 4 mps 729 mmHg 95%
    13:00 +2°C° 0.9 mm 3 mps 729 mmHg 96%
    14:00 +2°C° 0.3 mm 3 mps 729 mmHg 97%
    15:00 +2°C° 0.3 mm 3 mps 729 mmHg 97%
    16:00 +3°C° 0.3 mm 3 mps 729 mmHg 98%
    17:00 +3°C° 0.1 mm 3 mps 729 mmHg 97%
    18:00 +3°C° 0.1 mm 3 mps 730 mmHg 97%
    19:00 +3°C° 0.1 mm 3 mps 730 mmHg 97%
    20:00 +3°C° 0.1 mm 3 mps 731 mmHg 97%
    21:00 +3°C° 0.1 mm 3 mps 732 mmHg 97%
    22:00 +3°C° 0.1 mm 3 mps 732 mmHg 97%
    23:00 +2°C° 0.1 mm 3 mps 733 mmHg 96%
    Show more